Simultaneous Nadir Overpasses (SNOs) Predictions

Prediction of SNOs between TERRA and METOP-C Satellite Orbit:

Table of predicted SNOs for the next 14.0 days since TLE Epoch: 4/20/2019
Index Date (TERRA) Time (TERRA) Lat,Lon (TERRA) SZA (TERRA ) Date (METOP-C) Time (METOP-C) Lat,Lon (METOP-C) SZA (METOP-C ) Distance(km) Time Diff (sec)
1 04/22/2019 08:26:09 81.28, 100.39 72.00 04/22/2019 08:25:38 81.29, 100.33 71.98 1.19 31
2 04/22/2019 09:15:35 -81.30, -91.73 107.98 04/22/2019 09:16:17 -81.30, -91.83 107.97 1.79 42
3 04/25/2019 04:00:24 81.28, 166.83 71.09 04/25/2019 04:00:01 81.29, 166.68 71.06 2.66 23
4 04/25/2019 04:49:50 -81.30, -25.26 108.89 04/25/2019 04:50:40 -81.30, -25.41 108.88 2.63 50
5 04/27/2019 23:34:40 81.29,-126.68 70.21 04/27/2019 23:34:24 81.29,-126.58 70.22 1.78 16
6 04/28/2019 00:24:06 -81.30, 41.25 109.76 04/28/2019 00:25:03 -81.30, 41.40 109.72 2.48 57
7 04/30/2019 19:08:56 81.29, -60.15 69.37 04/30/2019 19:08:48 81.29, -60.23 69.35 1.37 8
8 04/30/2019 19:58:22 -81.31, 107.80 110.60 04/30/2019 19:59:27 -81.30, 107.82 110.57 0.89 65
9 05/03/2019 13:53:54 -81.12,-164.26 111.90 05/03/2019 13:52:40 -81.23,-164.54 111.89 13.09 74
10 05/03/2019 14:43:12 81.30, 6.43 68.56 05/03/2019 14:43:11 81.30, 6.52 68.57 1.56 1




NCC Satellite Simultaneous Nadir Overpasses (SNOs) Prediction Service
